• In Deutschland
  • Länderverzeichnis
  • Für 7 Tage
  • Wassertemperatur
  • Satellitenkarten
  • Wetterkarte
  • Widgets
  • user-avatar
    Anmelden

    Stündliche Wetter Haan

    Heute, 17 Oktober, Dienstag

    Zeit Temperatur Niederschläge Wind Luftdruck Luftfeuchtigkeit
    00:00 +17°C° 0 mm 2 m/S 753 mmHg 74%
    01:00 +17°C° 0 mm 2 m/S 753 mmHg 77%
    02:00 +16°C° 0 mm 2 m/S 753 mmHg 81%
    03:00 +16°C° 0 mm 2 m/S 753 mmHg 84%
    04:00 +15°C° 0 mm 2 m/S 753 mmHg 86%
    05:00 +15°C° 0 mm 1 m/S 753 mmHg 88%
    06:00 +14°C° 0 mm 1 m/S 754 mmHg 88%
    07:00 +15°C° 0 mm 1 m/S 754 mmHg 82%
    08:00 +18°C° 0 mm 1 m/S 754 mmHg 76%
    09:00 +19°C° 0 mm 1 m/S 754 mmHg 70%
    10:00 +20°C° 0 mm 1 m/S 753 mmHg 67%
    11:00 +20°C° 0 mm 2 m/S 753 mmHg 64%
    12:00 +21°C° 0 mm 2 m/S 753 mmHg 61%
    13:00 +22°C° 0 mm 1 m/S 753 mmHg 62%
    14:00 +23°C° 0 mm 1 m/S 752 mmHg 63%
    15:00 +23°C° 0 mm 1 m/S 752 mmHg 64%
    16:00 +21°C° 0 mm 1 m/S 751 mmHg 69%
    17:00 +19°C° 0 mm 1 m/S 751 mmHg 74%
    18:00 +18°C° 0 mm 1 m/S 751 mmHg 78%
    19:00 +18°C° 0 mm 1 m/S 751 mmHg 79%
    20:00 +16°C° 0 mm 1 m/S 751 mmHg 80%
    21:00 +16°C° 0 mm 1 m/S 751 mmHg 81%
    22:00 +15°C° 0 mm 1 m/S 751 mmHg 82%
    23:00 +15°C° 0 mm 1 m/S 750 mmHg 83%

    Morgen, 18 Oktober, Mittwoch

    Zeit Temperatur Niederschläge Wind Luftdruck Luftfeuchtigkeit
    00:00 +15°C° 0 mm 1 m/S 750 mmHg 84%
    01:00 +15°C° 0 mm 1 m/S 750 mmHg 86%
    02:00 +14°C° 0 mm 1 m/S 749 mmHg 87%
    03:00 +14°C° 0 mm 2 m/S 749 mmHg 88%
    04:00 +13°C° 0 mm 2 m/S 749 mmHg 87%
    05:00 +13°C° 0 mm 1 m/S 749 mmHg 87%
    06:00 +13°C° 0 mm 1 m/S 748 mmHg 87%
    07:00 +14°C° 0 mm 2 m/S 748 mmHg 80%
    08:00 +15°C° 0 mm 2 m/S 748 mmHg 73%
    09:00 +17°C° 0 mm 2 m/S 748 mmHg 66%
    10:00 +18°C° 0 mm 2 m/S 748 mmHg 61%
    11:00 +19°C° 0 mm 2 m/S 748 mmHg 57%
    12:00 +21°C° 0 mm 1 m/S 748 mmHg 52%
    13:00 +21°C° 0 mm 1 m/S 747 mmHg 54%
    14:00 +22°C° 0 mm 1 m/S 747 mmHg 56%
    15:00 +22°C° 0 mm 1 m/S 747 mmHg 58%
    16:00 +20°C° 0 mm 1 m/S 747 mmHg 63%
    17:00 +19°C° 0 mm 1 m/S 747 mmHg 68%
    18:00 +16°C° 0 mm 1 m/S 747 mmHg 74%
    19:00 +16°C° 0 mm 1 m/S 747 mmHg 76%
    20:00 +15°C° 0 mm 1 m/S 747 mmHg 78%
    21:00 +15°C° 0 mm 2 m/S 747 mmHg 81%
    22:00 +14°C° 0 mm 2 m/S 747 mmHg 82%
    23:00 +14°C° 0 mm 2 m/S 747 mmHg 83%

    übermorgen, 19 Oktober, Donnerstag

    Zeit Temperatur Niederschläge Wind Luftdruck Luftfeuchtigkeit
    00:00 +14°C° 0 mm 2 m/S 747 mmHg 84%
    01:00 +13°C° 0 mm 2 m/S 747 mmHg 85%
    02:00 +13°C° 0 mm 2 m/S 747 mmHg 85%
    03:00 +13°C° 0 mm 2 m/S 747 mmHg 85%
    04:00 +13°C° 0 mm 2 m/S 746 mmHg 85%
    05:00 +13°C° 0 mm 2 m/S 746 mmHg 84%
    06:00 +12°C° 0 mm 2 m/S 746 mmHg 84%
    07:00 +14°C° 0 mm 2 m/S 746 mmHg 77%
    08:00 +14°C° 0 mm 3 m/S 746 mmHg 71%
    09:00 +17°C° 0 mm 3 m/S 746 mmHg 64%
    10:00 +18°C° 0 mm 3 m/S 746 mmHg 61%
    11:00 +20°C° 0 mm 4 m/S 746 mmHg 57%
    12:00 +21°C° 0 mm 4 m/S 746 mmHg 53%
    13:00 +21°C° 0 mm 4 m/S 746 mmHg 55%
    14:00 +21°C° 0 mm 3 m/S 746 mmHg 57%
    15:00 +21°C° 0 mm 3 m/S 745 mmHg 59%
    16:00 +19°C° 0 mm 3 m/S 745 mmHg 62%
    17:00 +18°C° 0 mm 3 m/S 745 mmHg 65%
    18:00 +17°C° 0 mm 3 m/S 746 mmHg 68%
    19:00 +17°C° 0 mm 3 m/S 746 mmHg 67%
    20:00 +17°C° 0 mm 3 m/S 746 mmHg 66%
    21:00 +17°C° 0 mm 3 m/S 746 mmHg 65%
    22:00 +17°C° 0 mm 3 m/S 746 mmHg 64%
    23:00 +16°C° 0 mm 3 m/S 746 mmHg 64%

    20 Oktober, Freitag

    Zeit Temperatur Niederschläge Wind Luftdruck Luftfeuchtigkeit
    00:00 +16°C° 0 mm 3 m/S 746 mmHg 64%
    01:00 +15°C° 0 mm 4 m/S 746 mmHg 65%
    02:00 +15°C° 0 mm 4 m/S 746 mmHg 66%
    03:00 +15°C° 0 mm 4 m/S 745 mmHg 67%
    04:00 +15°C° 0 mm 4 m/S 746 mmHg 70%
    05:00 +15°C° 0 mm 4 m/S 746 mmHg 73%
    06:00 +14°C° 0 mm 4 m/S 746 mmHg 76%
    07:00 +15°C° 0 mm 5 m/S 746 mmHg 73%
    08:00 +16°C° 0 mm 5 m/S 746 mmHg 71%
    09:00 +16°C° 0 mm 6 m/S 746 mmHg 69%
    10:00 +17°C° 0 mm 5 m/S 747 mmHg 68%
    11:00 +17°C° 0 mm 5 m/S 747 mmHg 68%
    12:00 +17°C° 0 mm 5 m/S 747 mmHg 68%
    13:00 +17°C° 0 mm 5 m/S 747 mmHg 69%
    14:00 +18°C° 0 mm 4 m/S 747 mmHg 70%
    15:00 +18°C° 0 mm 4 m/S 747 mmHg 71%
    16:00 +18°C° 0 mm 3 m/S 747 mmHg 74%
    17:00 +17°C° 0 mm 3 m/S 747 mmHg 76%
    18:00 +17°C° 0 mm 3 m/S 747 mmHg 78%
    19:00 +17°C° 0 mm 3 m/S 747 mmHg 78%
    20:00 +16°C° 0 mm 3 m/S 747 mmHg 79%
    21:00 +16°C° 0 mm 3 m/S 747 mmHg 80%
    22:00 +16°C° 0 mm 3 m/S 747 mmHg 79%
    23:00 +16°C° 0 mm 3 m/S 747 mmHg 78%

    21 Oktober, Samstag

    Zeit Temperatur Niederschläge Wind Luftdruck Luftfeuchtigkeit
    00:00 +16°C° 0 mm 3 m/S 747 mmHg 77%
    01:00 +16°C° 0 mm 3 m/S 746 mmHg 78%
    02:00 +16°C° 0 mm 3 m/S 746 mmHg 79%
    03:00 +16°C° 0 mm 3 m/S 746 mmHg 79%
    04:00 +16°C° 0,1 mm 3 m/S 746 mmHg 79%
    05:00 +16°C° 0,1 mm 3 m/S 746 mmHg 79%
    06:00 +14°C° 0,1 mm 4 m/S 746 mmHg 78%
    07:00 +15°C° 0,5 mm 4 m/S 746 mmHg 79%
    08:00 +15°C° 0,5 mm 4 m/S 746 mmHg 81%
    09:00 +15°C° 0,5 mm 5 m/S 746 mmHg 82%
    10:00 +15°C° 2 mm 4 m/S 746 mmHg 83%
    11:00 +15°C° 2 mm 4 m/S 746 mmHg 85%
    12:00 +15°C° 2 mm 4 m/S 746 mmHg 86%
    13:00 +15°C° 0,1 mm 4 m/S 747 mmHg 81%
    14:00 +15°C° 0,1 mm 4 m/S 747 mmHg 77%
    15:00 +15°C° 0,1 mm 4 m/S 747 mmHg 73%
    16:00 +14°C° 0 mm 4 m/S 747 mmHg 73%
    17:00 +13°C° 0 mm 4 m/S 747 mmHg 73%
    18:00 +13°C° 0 mm 4 m/S 748 mmHg 74%
    19:00 +12°C° 0 mm 4 m/S 748 mmHg 73%
    20:00 +12°C° 0 mm 4 m/S 748 mmHg 73%
    21:00 +11°C° 0 mm 4 m/S 748 mmHg 73%
    22:00 +11°C° 0 mm 4 m/S 748 mmHg 72%
    23:00 +10°C° 0 mm 5 m/S 748 mmHg 72%

    22 Oktober, Sonntag

    Zeit Temperatur Niederschläge Wind Luftdruck Luftfeuchtigkeit
    00:00 +9°C° 0 mm 5 m/S 748 mmHg 72%
    01:00 +9°C° 0 mm 5 m/S 748 mmHg 72%
    02:00 +9°C° 0 mm 5 m/S 748 mmHg 73%
    03:00 +8°C° 0 mm 5 m/S 748 mmHg 74%
    04:00 +8°C° 0 mm 5 m/S 748 mmHg 75%
    05:00 +8°C° 0 mm 5 m/S 748 mmHg 76%
    06:00 +7°C° 0 mm 5 m/S 748 mmHg 77%
    07:00 +8°C° 0 mm 5 m/S 749 mmHg 74%
    08:00 +9°C° 0 mm 6 m/S 749 mmHg 72%
    09:00 +9°C° 0 mm 6 m/S 749 mmHg 70%
    10:00 +10°C° 0 mm 6 m/S 749 mmHg 67%
    11:00 +10°C° 0 mm 6 m/S 750 mmHg 64%
    12:00 +11°C° 0 mm 6 m/S 750 mmHg 62%
    13:00 +11°C° 0,1 mm 6 m/S 750 mmHg 62%
    14:00 +12°C° 0,1 mm 5 m/S 750 mmHg 62%
    15:00 +12°C° 0,1 mm 5 m/S 751 mmHg 62%
    16:00 +11°C° 0 mm 4 m/S 751 mmHg 64%
    17:00 +10°C° 0 mm 4 m/S 751 mmHg 67%
    18:00 +9°C° 0 mm 3 m/S 752 mmHg 70%
    19:00 +9°C° 0 mm 3 m/S 752 mmHg 72%
    20:00 +7°C° 0 mm 4 m/S 752 mmHg 73%
    21:00 +7°C° 0 mm 4 m/S 753 mmHg 74%
    22:00 +8°C° 0 mm 3 m/S 753 mmHg 75%
    23:00 +8°C° 0 mm 3 m/S 753 mmHg 76%
    Mehr zeigen